GW5487 Weather Reports


time (UTC)temp
C
wind
direction
speed
KPH
gust
KPH
rain 1hr
cm
rain 24hr
cm
rain mn
cm
humidity
%
barometer
mb
20260504033208 8 200 0.0 0.0 0.00 0.00 0.00 55 1013.3
20260504032705 9 239 1.6 1.6 0.00 0.00 0.00 55 1013.1
20260504032202 9 223 1.6 1.6 0.00 0.00 0.00 54 1013.0
20260504031658 9 191 0.0 0.0 0.00 0.00 0.00 54 1013.1
20260504031155 9 209 1.6 3.2 0.00 0.00 0.00 54 1013.3
20260504030652 10 204 1.6 1.6 0.00 0.00 0.00 53 1013.3
20260504030149 10 208 3.2 3.2 0.00 0.00 0.00 52 1012.9
20260504025646 10 205 1.6 3.2 0.00 0.00 0.00 52 1013.1
20260504025143 10 194 0.0 0.0 0.00 0.00 0.00 53 1013.1
20260504024640 8 287 4.8 8.0 0.00 0.00 0.00 56 1013.1
20260504024136 8 208 0.0 0.0 0.00 0.00 0.00 55 1013.0
20260504023633 8 204 0.0 0.0 0.00 0.00 0.00 57 1013.0
20260504023130 8 211 0.0 1.6 0.00 0.00 0.00 55 1012.9
20260504022626 8 241 1.6 3.2 0.00 0.00 0.00 56 1013.0
20260504022121 8 216 0.0 0.0 0.00 0.00 0.00 58 1013.0
20260504021619 8 203 0.0 0.0 0.00 0.00 0.00 57 1013.2
20260504021115 9 205 0.0 0.0 0.00 0.00 0.00 55 1013.0
20260504020613 9 203 0.0 0.0 0.00 0.00 0.00 55 1013.0
20260504020109 9 206 0.0 0.0 0.00 0.00 0.00 57 1013.1
20260504015606 9 206 0.0 0.0 0.00 0.00 0.00 55 1013.0
20260504015102 9 202 0.0 0.0 0.00 0.00 0.00 56 1013.2
20260504014558 9 202 0.0 1.6 0.00 0.00 0.00 55 1013.0
20260504014055 9 204 0.0 0.0 0.00 0.00 0.00 56 1013.1
20260504013552 9 205 0.0 0.0 0.00 0.00 0.00 58 1012.7
20260504013049 9 212 0.0 0.0 0.00 0.00 0.00 56 1012.8
20260504012547 9 210 0.0 0.0 0.00 0.00 0.00 55 1013.0
20260504012045 10 210 0.0 0.0 0.00 0.00 0.00 56 1012.5
20260504011541 10 203 0.0 0.0 0.00 0.00 0.00 53 1012.7
20260504011037 10 201 0.0 0.0 0.00 0.00 0.00 53 1012.7
20260504010533 10 200 0.0 0.0 0.00 0.00 0.00 52 1012.4
20260504010029 10 205 0.0 0.0 0.00 0.00 0.00 50 1012.5
20260504005526 10 206 0.0 0.0 0.00 0.00 0.00 50 1012.4
20260504005024 11 209 0.0 0.0 0.00 0.00 0.00 49 1012.3
20260504004522 11 200 0.0 0.0 0.00 0.00 0.00 49 1012.2
20260504004019 10 200 0.0 0.0 0.00 0.00 0.00 49 1012.1
20260504003514 11 210 0.0 0.0 0.00 0.00 0.00 50 1012.0
20260504003012 11 203 0.0 0.0 0.00 0.00 0.00 48 1012.2
20260504002508 11 196 0.0 1.6 0.00 0.00 0.00 45 1012.1
20260504002006 11 202 0.0 0.0 0.00 0.00 0.00 46 1011.9
20260504001503 11 202 0.0 0.0 0.00 0.00 0.00 45 1012.0
20260504000959 12 214 0.0 0.0 0.00 0.00 0.00 44 1011.8
20260504000456 12 215 0.0 0.0 0.00 0.00 0.00 42 1011.8
20260503235953 12 221 0.0 0.0 0.00 0.00 0.00 42 1011.6
20260503235451 13 221 0.0 0.0 0.00 0.00 0.00 42 1011.6
20260503234948 13 221 0.0 0.0 0.00 0.00 0.00 40 1011.6
20260503234446 13 239 1.6 3.2 0.00 0.00 0.00 38 1011.5
20260503233944 14 210 0.0 0.0 0.00 0.00 0.00 38 1011.5
20260503233440 14 243 3.2 3.2 0.00 0.00 0.00 36 1011.4
20260503232936 15 231 3.2 3.2 0.00 0.00 0.00 35 1011.2
20260503232433 15 230 3.2 3.2 0.00 0.00 0.00 36 1011.4
20260503231932 15 308 8.0 14.5 0.00 0.00 0.00 35 1011.4
20260503231429 15 289 12.9 16.1 0.00 0.00 0.00 34 1011.5
20260503230925 15 291 4.8 9.7 0.00 0.00 0.00 34 1011.5
20260503230421 15 291 9.7 11.3 0.00 0.00 0.00 34 1011.2
20260503225919 15 265 6.4 8.0 0.00 0.00 0.00 34 1011.1
20260503225415 15 232 4.8 4.8 0.00 0.00 0.00 34 1011.3
20260503224911 15 291 8.0 11.3 0.00 0.00 0.00 33 1011.2
20260503224409 15 261 8.0 9.7 0.00 0.00 0.00 33 1011.2
20260503223906 15 291 9.7 14.5 0.00 0.00 0.00 33 1011.2
20260503223404 15 290 11.3 14.5 0.00 0.00 0.00 32 1011.2
20260503222859 15 275 3.2 3.2 0.00 0.00 0.00 33 1011.0
20260503222358 15 293 9.7 11.3 0.00 0.00 0.00 33 1011.0
20260503221856 15 301 14.5 16.1 0.00 0.00 0.00 32 1011.2
20260503221355 15 309 17.7 24.1 0.00 0.00 0.00 32 1011.3
20260503220850 15 320 12.9 20.9 0.00 0.00 0.00 33 1011.2
20260503220347 15 299 12.9 16.1 0.00 0.00 0.00 33 1011.2
20260503215844 15 282 16.1 25.7 0.00 0.00 0.00 33 1011.2
20260503215341 15 299 17.7 25.7 0.00 0.00 0.00 33 1010.9
20260503214839 15 334 11.3 14.5 0.00 0.00 0.00 33 1010.9
20260503214336 15 288 12.9 17.7 0.00 0.00 0.00 33 1011.1
20260503213834 15 324 17.7 24.1 0.00 0.00 0.00 33 1010.9
20260503213331 15 287 8.0 11.3 0.00 0.00 0.00 33 1010.7
20260503212828 15 304 17.7 25.7 0.00 0.00 0.00 33 1011.1
20260503212326 15 260 16.1 20.9 0.00 0.00 0.00 33 1011.1
20260503211823 15 281 20.9 27.4 0.00 0.00 0.00 33 1010.9
20260503211319 15 304 12.9 20.9 0.00 0.00 0.00 33 1010.9
20260503210819 15 325 22.5 24.1 0.00 0.00 0.00 33 1011.1
20260503210317 15 337 14.5 22.5 0.00 0.00 0.00 33 1010.6
20260503205812 15 292 19.3 25.7 0.00 0.00 0.00 34 1010.7
20260503205309 15 325 12.9 16.1 0.00 0.00 0.00 34 1011.0
20260503204805 15 283 16.1 22.5 0.00 0.00 0.00 34 1011.0
20260503204303 15 290 19.3 22.5 0.00 0.00 0.00 33 1010.8
20260503203800 15 212 14.5 20.9 0.00 0.00 0.00 34 1010.9
20260503203257 15 303 17.7 22.5 0.00 0.00 0.00 33 1010.8
20260503202748 15 233 11.3 12.9 0.00 0.00 0.00 34 1010.7
20260503202246 14 238 8.0 9.7 0.00 0.00 0.00 35 1010.5
20260503201743 14 289 12.9 17.7 0.00 0.00 0.00 34 1010.7
20260503201241 14 241 14.5 17.7 0.00 0.00 0.00 34 1010.9
20260503200737 14 298 20.9 22.5 0.00 0.00 0.00 35 1011.0
20260503200233 14 265 14.5 20.9 0.00 0.00 0.00 35 1011.1
20260503195730 13 318 12.9 17.7 0.00 0.00 0.00 35 1010.8
20260503195227 14 276 11.3 12.9 0.00 0.00 0.00 36 1011.0
20260503194725 13 258 20.9 27.4 0.00 0.00 0.00 36 1011.1
20260503194220 15 281 9.7 12.9 0.00 0.00 0.00 36 1011.0
20260503193717 15 288 11.3 16.1 0.00 0.00 0.00 36 1011.2
20260503193213 14 259 8.0 11.3 0.00 0.00 0.00 37 1011.2
20260503192709 13 275 8.0 11.3 0.00 0.00 0.00 38 1011.2
20260503192204 14 249 14.5 16.1 0.00 0.00 0.00 37 1011.3
20260503191701 13 284 17.7 24.1 0.00 0.00 0.00 37 1011.3
20260503191158 13 247 8.0 9.7 0.00 0.00 0.00 38 1011.5
20260503190655 13 297 9.7 14.5 0.00 0.00 0.00 39 1011.1
20260503190152 13 310 8.0 11.3 0.00 0.00 0.00 40 1011.2
20260503185649 13 289 8.0 11.3 0.00 0.00 0.00 40 1011.4
20260503185144 13 302 14.5 17.7 0.00 0.00 0.00 39 1011.5
20260503184639 13 273 17.7 22.5 0.00 0.00 0.00 39 1011.7
20260503184136 13 301 20.9 22.5 0.00 0.00 0.00 39 1011.7
20260503183632 13 292 22.5 27.4 0.00 0.00 0.00 38 1011.9
20260503183129 13 289 8.0 11.3 0.00 0.00 0.00 39 1011.7
20260503182628 13 281 11.3 12.9 0.00 0.00 0.00 40 1011.7
20260503182126 13 289 16.1 20.9 0.00 0.00 0.00 38 1011.8
20260503181622 13 297 14.5 16.1 0.00 0.00 0.00 40 1012.0
20260503181119 12 260 6.4 8.0 0.00 0.00 0.00 41 1011.9
20260503180616 12 303 14.5 16.1 0.00 0.00 0.00 40 1011.9
20260503180114 12 231 14.5 22.5 0.00 0.00 0.00 41 1011.7
20260503175610 12 299 11.3 12.9 0.00 0.00 0.00 41 1011.6
20260503175108 12 262 11.3 12.9 0.00 0.00 0.00 41 1011.9
20260503174605 12 281 17.7 24.1 0.00 0.00 0.00 40 1011.7
20260503174102 12 317 17.7 22.5 0.00 0.00 0.00 41 1011.7
20260503173556 12 280 6.4 12.9 0.00 0.00 0.00 41 1011.9
20260503173053 12 282 25.7 35.4 0.00 0.00 0.00 40 1011.9
20260503172550 12 265 11.3 16.1 0.00 0.00 0.00 41 1011.9
20260503172047 12 296 11.3 14.5 0.00 0.00 0.00 43 1011.8
20260503171544 12 331 8.0 11.3 0.00 0.00 0.00 41 1011.8
20260503171041 12 286 11.3 16.1 0.00 0.00 0.00 40 1011.8
20260503170537 11 296 16.1 17.7 0.00 0.00 0.00 40 1011.7
20260503150931 11 342 11.3 17.7 0.00 0.00 0.00 46 1012.4
20260503150427 10 297 6.4 11.3 0.00 0.00 0.00 46 1012.2
20260503131320 8 322 12.9 14.5 0.00 0.00 0.00 54 1012.1
20260503130817 10 255 20.9 35.4 0.00 0.00 0.00 53 1012.0
20260503130314 9 265 8.0 9.7 0.00 0.00 0.00 55 1012.1
20260503110708 7 281 6.4 8.0 0.00 0.00 0.00 58 1011.2
20260503110205 7 304 8.0 9.7 0.00 0.00 0.00 59 1011.0
20260503100131 8 327 8.0 9.7 0.00 0.00 0.00 56 1009.9
20260503081521 8 330 6.4 9.7 0.00 0.00 0.00 54 1009.2
20260503081018 8 230 3.2 3.2 0.00 0.00 0.00 54 1009.0
20260503080514 8 324 1.6 4.8 0.00 0.00 0.00 56 1009.3
20260503072454 9 249 3.2 4.8 0.00 0.00 0.00 55 1009.4
20260503071951 9 266 1.6 3.2 0.00 0.00 0.00 55 1009.5
20260503071448 9 300 3.2 3.2 0.00 0.00 0.00 55 1009.4
20260503070944 9 219 3.2 3.2 0.00 0.00 0.00 54 1009.4
20260503070441 10 239 0.0 1.6 0.00 0.00 0.00 54 1009.3
20260503054900 10 294 3.2 3.2 0.00 0.00 0.00 51 1009.6
20260503054355 10 261 4.8 4.8 0.00 0.00 0.00 53 1009.5
20260503053854 10 262 4.8 4.8 0.00 0.00 0.00 53 1009.8
20260503053352 10 286 4.8 4.8 0.00 0.00 0.00 53 1009.8
20260503052848 10 239 6.4 8.0 0.00 0.00 0.00 53 1009.9
20260503052345 10 246 4.8 4.8 0.00 0.00 0.00 53 1009.5
20260503051841 10 297 4.8 4.8 0.00 0.00 0.00 54 1009.7
20260503051337 10 200 4.8 4.8 0.00 0.00 0.00 53 1009.7
20260503050835 10 220 3.2 3.2 0.00 0.00 0.00 54 1010.0
20260503050331 10 289 4.8 4.8 0.00 0.00 0.00 55 1009.9
20260503045828 10 238 6.4 8.0 0.00 0.00 0.00 54 1009.9
20260503045326 10 215 3.2 3.2 0.00 0.00 0.00 55 1010.0
20260503044822 10 236 3.2 3.2 0.00 0.00 0.00 56 1009.9
20260503044319 10 237 4.8 8.0 0.00 0.00 0.00 55 1010.0
20260503043816 10 301 4.8 9.7 0.00 0.00 0.00 56 1010.4
20260503043313 10 231 1.6 1.6 0.00 0.00 0.00 55 1010.2
20260503042809 10 343 3.2 4.8 0.00 0.00 0.00 56 1010.3
20260503042306 10 233 1.6 3.2 0.00 0.00 0.00 56 1010.5
20260503041802 10 292 4.8 4.8 0.00 0.00 0.00 56 1010.4
20260503041300 10 260 6.4 8.0 0.00 0.00 0.00 57 1010.3
20260503040757 10 215 4.8 8.0 0.00 0.00 0.00 56 1010.3
20260503040255 10 250 4.8 8.0 0.00 0.00 0.00 56 1010.5
20260503035751 11 238 3.2 4.8 0.00 0.00 0.00 57 1010.3
20260503035249 11 297 4.8 8.0 0.00 0.00 0.00 57 1010.4
20260503034746 11 259 3.2 3.2 0.00 0.00 0.00 57 1010.2
20260503034243 11 328 4.8 8.0 0.00 0.00 0.00 56 1010.0
20260503033740 11 288 8.0 9.7 0.00 0.00 0.00 56 1010.3